Home   Weather   Ra'anana   Past weeks

Flag for Israel Past Weather in Ra'anana, Israel — Yesterday and Last 2 Weeks

Now
55 °F

Sunny.


Feels Like: 54 °F
Forecast: 49 / 65 °F
Wind: 6 mph from Northeast

Location: Dov Airport

Current Time: Dec 9, 2016 at 10:00:03 am

Latest Report: Dec 9, 2016 at 8:50 am


Visibility: 10 mi

Pressure: 30.33 "Hg

Humidity: 51%

Dew Point: 37 °F

Location of Ra'ananaLocation

Past Weather in Ra'anana — Graph

°F

Ra'anana Temperature Yesterday

Maximum temperature yesterday: 68 °F (at 10:50 am)
Minimum temperature yesterday: 54 °F (at 6:50 am)
Average temperature yesterday: 60 °F

High & Low Weather Summary for the Past Weeks

 TemperatureHumidityPressure
High81 °F (Nov 28, 1:50 pm)94% (Dec 1, 3:02 pm)30.30 "Hg (Dec 1, 3:02 pm)
Low52 °F (Nov 26, 6:50 am)5% (Nov 24, 1:50 pm)29.74 "Hg (Dec 1, 1:50 pm)
Average64 °F48%30.08 "Hg
* Reported Nov 24 7:50 am — Dec 9 7:50 am, Ra'anana, Weather by CustomWeather, © 2016

Note: Actual official high and low records may vary slightly from our data, if they occured in-between our weather recording intervals... More about our weather records

Advertising

Ra'anana Weather History for the Previous 24 Hours

Scroll right to see more
 ConditionsComfort  
Time TempWeatherWind HumidityBarometerVisibility
7:50 am
Fri, Dec 9
54 °FSunny.7 mph54%30.30 "Hg10 mi
6:50 am52 °FSunny.8 mph58%30.30 "Hg10 mi
5:50 am52 °FClear.7 mph58%30.30 "Hg10 mi
12:50 am54 °FPassing clouds.7 mph63%30.30 "HgN/A
11:50 pm
Thu, Dec 8
54 °FPassing clouds.7 mph67%30.27 "HgN/A
10:50 pm55 °FClear.10 mph63%30.27 "Hg10 mi
9:50 pm54 °FClear.7 mph88%30.27 "Hg10 mi
8:50 pm55 °FClear.6 mph82%30.27 "Hg10 mi
7:50 pm57 °FClear.3 mph88%30.24 "Hg10 mi
6:50 pm57 °FPassing clouds.6 mph88%30.24 "HgN/A
5:50 pm57 °FPassing clouds.7 mph88%30.24 "HgN/A
4:50 pm59 °FRain. Partly cloudy.6 mph82%30.21 "HgN/A
3:50 pm59 °FScattered clouds.8 mph88%30.21 "HgN/A
2:50 pm66 °FLight rain. Scattered clouds.12 mph64%30.18 "HgN/A
1:50 pm68 °FPassing clouds.3 mph53%30.18 "HgN/A
12:50 pm68 °FSunny.6 mph53%30.18 "Hg10 mi
11:50 am68 °FPassing clouds.6 mph49%30.21 "HgN/A
10:50 am68 °FPassing clouds.3 mph46%30.24 "HgN/A
Weather by CustomWeather, © 2016

See weather overviewHow to use our weather pages